Simultaneous Nadir Overpasses (SNOs) Predictions

Prediction of SNOs between LANDSAT-8 and METOP-B Satellite Orbit:

Table of predicted SNOs for the next 14.0 days since TLE Epoch: 1/9/2021
Index Date (LANDSAT-8) Time (LANDSAT-8) Lat,Lon (LANDSAT-8) SZA (LANDSAT-8 ) Date (METOP-B) Time (METOP-B) Lat,Lon (METOP-B) SZA (METOP-B ) Distance(km) Time Diff (sec)
1 01/11/2021 05:03:18 81.13, 144.09 104.64 01/11/2021 05:03:07 81.13, 144.07 104.63 0.42 11
2 01/11/2021 05:52:44 -81.15, -47.96 75.33 01/11/2021 05:53:46 -81.15, -47.95 75.30 0.21 62
3 01/13/2021 23:48:31 -80.40, 34.01 77.22 01/13/2021 23:47:17 -80.64, 33.19 77.09 30.13 74
4 01/14/2021 00:37:31 81.13,-149.53 104.14 01/14/2021 00:37:30 81.13,-149.54 104.14 0.15 1
5 01/14/2021 01:26:57 -81.15, 18.44 75.83 01/14/2021 01:28:09 -81.15, 18.48 75.79 0.87 72
6 01/16/2021 19:22:19 -81.12, 109.14 76.42 01/16/2021 19:21:14 -81.12, 109.26 76.44 1.99 65
7 01/16/2021 20:11:44 81.14, -82.82 103.63 01/16/2021 20:11:53 81.14, -82.78 103.63 0.81 9
8 01/19/2021 14:56:33 -81.11, 175.48 77.03 01/19/2021 14:55:39 -81.10, 175.30 77.07 3.20 54
9 01/19/2021 15:45:58 81.13, -16.51 103.02 01/19/2021 15:46:17 81.14, -16.42 103.03 1.49 19
10 01/22/2021 10:30:46 -81.10,-118.22 77.70 01/22/2021 10:30:02 -81.10,-118.31 77.72 1.52 44



Historial Predications of SNOs between LANDSAT-8 and METOP-B
